�������l�o���
Date,Time,MP-1(��Sv/h),MP-2(��Sv/h),MP-3(��Sv/h),MP-4(��Sv/h),MP-5(��Sv/h),MP-6(��Sv/h),MP-7(��Sv/h),MP-8(��Sv/h),����,����(m/s),���J
2024/04/07,00:00,0.483,0.731,0.466,0.909,0.652,0.306,0.538,0.506,�k��,4.8,��
2024/04/07,00:10,0.482,0.733,0.467,0.909,0.654,0.306,0.539,0.506,�k��,3.5,��
2024/04/07,00:20,0.481,0.732,0.467,0.908,0.650,0.306,0.539,0.507,�k�k��,2.0,��
2024/04/07,00:30,0.482,0.733,0.468,0.910,0.650,0.307,0.539,0.510,�k��,1.2,��
2024/04/07,00:40,0.484,0.733,0.468,0.910,0.652,0.308,0.539,0.507,�k��,2.8,��
2024/04/07,00:50,0.482,0.734,0.468,0.908,0.652,0.307,0.539,0.507,�k�k��,2.3,��
2024/04/07,01:00,0.484,0.732,0.466,0.907,0.653,0.307,0.539,0.508,�k��,2.0,��
2024/04/07,01:10,0.483,0.733,0.465,0.909,0.654,0.307,0.538,0.508,�k�k��,2.3,��
2024/04/07,01:20,0.482,0.734,0.468,0.910,0.651,0.307,0.539,0.508,�k�k��,3.3,��
2024/04/07,01:30,0.484,0.732,0.467,0.911,0.651,0.306,0.540,0.509,�k�k��,3.2,��
2024/04/07,01:40,0.483,0.734,0.467,0.909,0.653,0.308,0.538,0.510,�k,2.8,��
2024/04/07,01:50,0.484,0.733,0.467,0.909,0.651,0.307,0.538,0.507,�k,1.5,��
2024/04/07,02:00,0.484,0.733,0.466,0.910,0.651,0.307,0.538,0.508,�k�k��,1.9,��
2024/04/07,02:10,0.482,0.734,0.466,0.908,0.653,0.307,0.537,0.511,�k�k��,2.0,��
2024/04/07,02:20,0.484,0.733,0.466,0.910,0.654,0.307,0.537,0.509,�k�k��,1.9,��
2024/04/07,02:30,0.483,0.735,0.467,0.909,0.653,0.309,0.537,0.509,�k,1.7,��
2024/04/07,02:40,0.483,0.732,0.468,0.909,0.653,0.308,0.540,0.508,�k,0.9,��
2024/04/07,02:50,0.484,0.733,0.466,0.907,0.654,0.308,0.537,0.509,�k�k��,1.2,��
2024/04/07,03:00,0.485,0.733,0.467,0.909,0.654,0.307,0.538,0.508,�k�k��,2.0,��
2024/04/07,03:10,0.483,0.733,0.467,0.908,0.651,0.307,0.537,0.509,�k�k��,1.9,��
2024/04/07,03:20,0.484,0.734,0.466,0.910,0.655,0.307,0.538,0.507,�k�k��,1.9,��
2024/04/07,03:30,0.484,0.734,0.466,0.911,0.652,0.306,0.537,0.508,�k,1.5,��
2024/04/07,03:40,0.482,0.734,0.468,0.910,0.652,0.307,0.538,0.508,�k,2.8,��
2024/04/07,03:50,0.484,0.734,0.466,0.911,0.654,0.306,0.539,0.507,�k,2.0,��
2024/04/07,04:00,0.485,0.735,0.467,0.910,0.654,0.307,0.537,0.508,�k�k��,2.9,��
2024/04/07,04:10,0.485,0.736,0.468,0.910,0.654,0.307,0.537,0.508,�k�k��,3.1,��
2024/04/07,04:20,0.483,0.735,0.469,0.912,0.654,0.308,0.566,0.508,�k�k��,2.9,��
2024/04/07,04:30,0.483,0.735,0.467,0.910,0.654,0.308,0.538,0.507,�k�k��,2.3,��
2024/04/07,04:40,0.484,0.736,0.469,0.912,0.654,0.307,0.537,0.508,�k�k��,3.0,��
2024/04/07,04:50,0.483,0.736,0.468,0.910,0.652,0.307,0.537,0.509,�k�k��,2.6,��
2024/04/07,05:00,0.483,0.734,0.467,0.911,0.654,0.308,0.539,0.509,�k,2.0,��
2024/04/07,05:10,0.483,0.733,0.469,0.911,0.654,0.308,0.539,0.507,�k,2.5,��
2024/04/07,05:20,0.483,0.734,0.467,0.911,0.654,0.308,0.538,0.508,�k�k��,2.6,��
2024/04/07,05:30,0.484,0.736,0.467,0.910,0.655,0.308,0.538,0.508,�k�k��,2.5,��
2024/04/07,05:40,0.484,0.734,0.468,0.912,0.655,0.307,0.540,0.508,�k�k��,2.5,��
2024/04/07,05:50,0.484,0.736,0.468,0.912,0.654,0.308,0.538,0.510,�k,2.6,��
2024/04/07,06:00,0.483,0.734,0.467,0.909,0.655,0.307,0.538,0.507,�k,2.6,��
2024/04/07,06:10,0.485,0.735,0.469,0.910,0.655,0.308,0.538,0.508,�k,2.8,��
2024/04/07,06:20,0.484,0.735,0.466,0.912,0.656,0.308,0.538,0.507,�k,2.5,��
2024/04/07,06:30,0.483,0.736,0.467,0.909,0.653,0.308,0.540,0.507,�k,2.3,��
2024/04/07,06:40,0.485,0.735,0.468,0.912,0.654,0.308,0.538,0.508,�k�k��,2.0,��
2024/04/07,06:50,0.483,0.735,0.467,0.911,0.655,0.308,0.538,0.507,�k�k��,1.9,��
2024/04/07,07:00,0.484,0.738,0.468,0.910,0.653,0.307,0.539,0.508,�k,1.7,��
2024/04/07,07:10,0.484,0.735,0.467,0.910,0.655,0.307,0.539,0.507,�k,1.5,��
2024/04/07,07:20,0.484,0.736,0.468,0.911,0.653,0.309,0.538,0.509,�k�k��,1.2,��
2024/04/07,07:30,0.484,0.736,0.468,0.911,0.654,0.307,0.537,0.507,�k,1.7,��
2024/04/07,07:40,0.483,0.735,0.468,0.909,0.655,0.308,0.538,0.508,�k,1.7,��
2024/04/07,07:50,0.483,0.737,0.468,0.913,0.653,0.309,0.538,0.509,�k,1.9,��
2024/04/07,08:00,0.484,0.737,0.467,0.909,0.653,0.307,0.538,0.506,�k,2.5,��
2024/04/07,08:10,0.483,0.736,0.468,0.911,0.656,0.308,0.538,0.508,�k,2.0,��
2024/04/07,08:20,0.485,0.739,0.469,0.910,0.655,0.308,0.540,0.507,�k�k��,2.0,��
2024/04/07,08:30,0.487,0.737,0.469,0.911,0.653,0.306,0.539,0.508,�k,1.5,��
2024/04/07,08:40,0.486,0.735,0.468,0.913,0.655,0.305,0.538,0.507,-,CALM,��
2024/04/07,08:50,0.486,0.736,0.469,0.914,0.655,0.306,0.538,0.506,�k�k��,1.5,��
2024/04/07,09:00,0.485,0.736,0.469,0.913,0.656,0.305,0.537,0.507,�k�k��,1.7,��
2024/04/07,09:10,0.486,0.734,0.469,0.911,0.656,0.306,0.539,0.508,�k�k��,2.3,��
2024/04/07,09:20,0.484,0.735,0.470,0.912,0.655,0.306,0.537,0.506,�k,2.6,��
2024/04/07,09:30,0.483,0.736,0.469,0.912,0.655,0.306,0.538,0.506,�k�k��,2.0,��
2024/04/07,09:40,0.483,0.736,0.468,0.913,0.654,0.303,0.537,0.507,�k,1.9,��
2024/04/07,09:50,0.485,0.736,0.469,0.911,0.654,0.306,0.538,0.506,�k,1.5,��
2024/04/07,10:00,0.485,0.737,0.469,0.912,0.655,0.306,0.537,0.505,�k�k��,1.5,��
2024/04/07,10:10,0.483,0.737,0.470,0.912,0.657,0.306,0.538,0.506,�k��,1.7,��
2024/04/07,10:20,0.484,0.737,0.469,0.911,0.655,0.307,0.539,0.507,�k��,1.5,��
2024/04/07,10:30,0.487,0.738,0.469,0.913,0.656,0.308,0.538,0.507,�k�k��,0.6,��
2024/04/07,10:40,0.486,0.738,0.467,0.915,0.657,0.307,0.539,0.506,��,0.6,��
2024/04/07,10:50,0.485,0.737,0.469,0.912,0.656,0.307,0.538,0.507,�쓌,1.5,��
2024/04/07,11:00,0.487,0.742,0.470,0.914,0.656,0.307,0.540,0.507,���k��,1.9,��
2024/04/07,11:10,0.486,0.740,0.470,0.911,0.657,0.307,0.539,0.507,���k��,2.6,��
2024/04/07,11:20,0.488,0.741,0.470,0.913,0.658,0.306,0.540,0.507,��,1.5,��
2024/04/07,11:30,0.488,0.741,0.470,0.914,0.660,0.306,0.541,0.506,��,2.0,��
2024/04/07,11:40,0.488,0.741,0.473,0.915,0.659,0.306,0.539,0.507,���k��,3.0,��
2024/04/07,11:50,0.488,0.740,0.470,0.914,0.660,0.307,0.542,0.508,���k��,2.6,��
2024/04/07,12:00,0.486,0.743,0.470,0.916,0.658,0.307,0.540,0.507,��,2.3,��
2024/04/07,12:10,0.487,0.742,0.469,0.914,0.658,0.308,0.541,0.508,���k��,3.2,��
2024/04/07,12:20,0.487,0.743,0.471,0.914,0.660,0.307,0.540,0.510,���k��,2.3,��
2024/04/07,12:30,0.489,0.743,0.471,0.915,0.661,0.306,0.540,0.507,�k��,2.3,��
2024/04/07,12:40,0.488,0.743,0.470,0.915,0.658,0.308,0.540,0.508,���k��,2.9,��
2024/04/07,12:50,0.487,0.742,0.470,0.914,0.662,0.308,0.541,0.508,���k��,3.0,��
2024/04/07,13:00,0.489,0.743,0.472,0.914,0.661,0.306,0.540,0.507,��,2.5,��
2024/04/07,13:10,0.489,0.744,0.473,0.916,0.662,0.307,0.542,0.508,��,2.3,��
2024/04/07,13:20,0.489,0.742,0.472,0.916,0.661,0.307,0.541,0.509,���쓌,2.0,��
2024/04/07,13:30,0.489,0.741,0.473,0.916,0.660,0.308,0.542,0.508,���쓌,2.0,��
2024/04/07,13:40,0.491,0.742,0.472,0.916,0.661,0.308,0.540,0.508,���쓌,2.3,��
2024/04/07,13:50,0.489,0.745,0.471,0.915,0.662,0.307,0.540,0.510,���쓌,2.5,��
2024/04/07,14:00,0.489,0.743,0.473,0.913,0.661,0.307,0.540,0.510,�쓌,2.3,��
2024/04/07,14:10,0.490,0.747,0.473,0.916,0.660,0.308,0.542,0.508,�쓌,2.0,��
2024/04/07,14:20,0.488,0.744,0.473,0.916,0.661,0.308,0.541,0.509,��쓌,2.6,��
2024/04/07,14:30,0.490,0.744,0.473,0.916,0.663,0.307,0.543,0.509,��쓌,3.9,��
2024/04/07,14:40,0.490,0.746,0.471,0.914,0.661,0.307,0.541,0.509,�쓌,3.3,��
2024/04/07,14:50,0.489,0.744,0.473,0.916,0.662,0.308,0.541,0.509,��쓌,3.9,��
2024/04/07,15:00,0.490,0.744,0.472,0.918,0.661,0.307,0.541,0.509,�쓌,4.1,��
2024/04/07,15:10,0.489,0.746,0.472,0.916,0.664,0.307,0.542,0.509,�쓌,3.2,��
2024/04/07,15:20,0.489,0.746,0.473,0.916,0.662,0.307,0.541,0.510,�쓌,3.8,��
2024/04/07,15:30,0.490,0.745,0.473,0.918,0.660,0.308,0.542,0.510,��쓌,6.1,��
2024/04/07,15:40,0.490,0.746,0.473,0.917,0.662,0.308,0.543,0.510,��쓌,5.7,��
2024/04/07,15:50,0.491,0.745,0.473,0.916,0.663,0.308,0.541,0.509,��,5.6,��
2024/04/07,16:00,0.490,0.743,0.473,0.917,0.662,0.308,0.543,0.508,��쓌,6.1,��
2024/04/07,16:10,0.489,0.744,0.475,0.914,0.663,0.308,0.541,0.508,��쓌,8.5,��
2024/04/07,16:20,0.490,0.745,0.473,0.917,0.664,0.308,0.542,0.509,��쓌,7.9,��
2024/04/07,16:30,0.489,0.743,0.474,0.914,0.664,0.308,0.542,0.509,��,7.6,��
2024/04/07,16:40,0.490,0.744,0.474,0.916,0.664,0.308,0.544,0.509,��,7.4,��
2024/04/07,16:50,0.491,0.743,0.474,0.917,0.663,0.309,0.542,0.508,��,6.5,��
2024/04/07,17:00,0.489,0.744,0.474,0.915,0.663,0.310,0.543,0.510,��,6.7,��
2024/04/07,17:10,0.490,0.746,0.474,0.916,0.663,0.310,0.542,0.509,��,7.3,��
2024/04/07,17:20,0.488,0.743,0.473,0.917,0.663,0.309,0.541,0.508,��,8.6,��
2024/04/07,17:30,0.489,0.745,0.473,0.918,0.663,0.310,0.543,0.508,��쓌,7.5,��
2024/04/07,17:40,0.488,0.745,0.474,0.919,0.662,0.310,0.542,0.509,��쓌,9.6,��
2024/04/07,17:50,0.490,0.746,0.473,0.916,0.662,0.308,0.543,0.509,��,8.6,��
2024/04/07,18:00,0.489,0.745,0.472,0.920,0.661,0.308,0.542,0.510,��쓌,9.4,��
2024/04/07,18:10,0.490,0.746,0.473,0.920,0.661,0.309,0.541,0.510,��,9.3,��
2024/04/07,18:20,0.490,0.744,0.475,0.918,0.663,0.308,0.541,0.510,��,11.3,��
2024/04/07,18:30,0.491,0.748,0.474,0.920,0.662,0.309,0.542,0.511,��,9.0,��
2024/04/07,18:40,0.492,0.747,0.474,0.920,0.663,0.308,0.542,0.511,��쓌,10.3,��
2024/04/07,18:50,0.490,0.747,0.474,0.918,0.662,0.310,0.541,0.510,��,11.0,��
2024/04/07,19:00,0.492,0.749,0.475,0.918,0.663,0.308,0.543,0.511,��,10.0,��
2024/04/07,19:10,0.493,0.748,0.475,0.917,0.663,0.312,0.543,0.509,��,9.0,��
2024/04/07,19:20,0.491,0.748,0.475,0.918,0.662,0.309,0.543,0.511,��,8.0,��
2024/04/07,19:30,0.491,0.746,0.475,0.919,0.662,0.308,0.544,0.512,��,6.7,��
2024/04/07,19:40,0.491,0.748,0.477,0.916,0.665,0.311,0.544,0.510,��,7.8,��
2024/04/07,19:50,0.491,0.749,0.475,0.919,0.664,0.311,0.545,0.510,��,7.8,��
2024/04/07,20:00,0.491,0.749,0.475,0.919,0.666,0.310,0.544,0.510,��,7.7,��
2024/04/07,20:10,0.492,0.747,0.475,0.920,0.664,0.308,0.544,0.510,��,8.9,��
2024/04/07,20:20,0.492,0.748,0.474,0.918,0.665,0.310,0.544,0.511,��,8.9,��
2024/04/07,20:30,0.492,0.748,0.474,0.917,0.665,0.310,0.545,0.510,��,8.7,��
2024/04/07,20:40,0.491,0.747,0.473,0.920,0.665,0.309,0.542,0.511,��,7.6,��
2024/04/07,20:50,0.493,0.749,0.474,0.917,0.667,0.310,0.543,0.511,��,6.9,��
2024/04/07,21:00,0.493,0.749,0.474,0.917,0.665,0.309,0.543,0.511,��,7.0,��
2024/04/07,21:10,0.492,0.747,0.474,0.920,0.664,0.309,0.545,0.511,��쐼,6.7,��
2024/04/07,21:20,0.491,0.747,0.476,0.920,0.664,0.310,0.545,0.510,��,5.0,��
2024/04/07,21:30,0.492,0.749,0.476,0.920,0.664,0.310,0.544,0.511,��,4.5,��
2024/04/07,21:40,0.490,0.747,0.475,0.920,0.665,0.310,0.544,0.509,��,5.4,��
2024/04/07,21:50,0.490,0.745,0.474,0.920,0.664,0.310,0.543,0.512,��,5.2,��
2024/04/07,22:00,0.491,0.747,0.475,0.918,0.666,0.309,0.543,0.510,��,4.9,��
2024/04/07,22:10,0.490,0.747,0.474,0.921,0.664,0.309,0.544,0.510,��,4.4,��
2024/04/07,22:20,0.492,0.747,0.474,0.920,0.663,0.311,0.543,0.509,��,4.0,��
2024/04/07,22:30,0.490,0.746,0.474,0.919,0.665,0.308,0.544,0.510,��,4.5,��
2024/04/07,22:40,0.491,0.749,0.474,0.919,0.665,0.310,0.543,0.510,��,6.0,��
2024/04/07,22:50,0.492,0.747,0.475,0.919,0.664,0.310,0.541,0.510,��,5.1,��
2024/04/07,23:00,0.489,0.748,0.474,0.917,0.664,0.309,0.544,0.510,��,4.3,��
2024/04/07,23:10,0.492,0.746,0.474,0.919,0.663,0.311,0.542,0.511,��,3.1,��
2024/04/07,23:20,0.490,0.748,0.474,0.917,0.663,0.309,0.542,0.510,��,4.0,��
2024/04/07,23:30,0.490,0.748,0.474,0.919,0.666,0.310,0.542,0.510,��,4.6,��
2024/04/07,23:40,0.490,0.750,0.475,0.918,0.665,0.311,0.544,0.509,��,4.3,��
2024/04/07,23:50,0.491,0.748,0.474,0.921,0.665,0.311,0.543,0.510,��,3.4,��
